STARLINK-1174 (45075 NORAD) Tracking and Keplerian Element Data

This shows tracking and keplerian element data for the satellite.

Feedback or suggestion? Click here.




ElementValue
Catalog45075
NameSTARLINK-1174
Epoch Orbit1047
Epoch Day93.91667824
Epoch Year2020
RAAN277.2588
Inclination53.0025
Eccentricity0.0001747
Argument of Perigee247.8738
Mean Anonmoly315.7299
Mean Motion15.51623802
Decay Rate0.03040531
L11 45075U 20006AH 20093.91667824 .03040531 00000-0 44424-1 0 9991
L22 45075 53.0025 277.2588 0001747 247.8738 315.7299 15.51623802 10476

Live tracking and technical data element details for STARLINK-1174 (NORAD 45075). STARLINK-1174 can be tracked NOW for your location showing map with azimuth and elevation plus other details from your city location.

Track the satellite on the map from your city or location and see movement details for azimuth, elevation, latitude, longitude, range, height, and movement on the map or in text.







IsCatalogInMostPopularTable: catalog: 45075, numindb: 15
Update: records affected: 1



GetName: 45075 STARLINK-1174

Hit Count: updated at: Fri, 10 Apr 2020 18:00:22 GMT